Location: Betpouey
(42.8833°N, 0.0333°E)
Time: 15:14:12
(UTC+00:00)

Daily predictions for brighter satellites

Satellite Brightness Start Highest point End
(mag) Time Altitude Azimuth Time Altitude Azimuth Time Altitude Azimuth
Cosmos 676 Rocket 4.5 19:34:46 10° N 19:39:48 45° ENE 19:44:44 10° SE
Cosmos 1975 Rocket 3.5 19:37:13 10° NNW 19:41:31 63° W 19:45:46 10° S
Cosmos 1605 Rocket 4.1 19:37:18 10° S 19:43:27 83° W 19:49:45 10° N
Okean 1 Rocket 3.9 19:47:55 10° SSE 19:51:46 31° E 19:55:40 10° NNE
Cosmos 1980 Rocket 3.7 19:47:40 10° N 19:52:03 22° NE 19:56:24 10° E
ARIANE 6 FM1 Upper Stage 3.3 19:49:39 10° NW 19:53:30 49° WSW 19:57:20 10° SSE
SL-08 R/B 4.1 19:49:21 10° NNE 19:53:41 32° E 19:57:56 10° SSE
Cosmos 2084 4.4 19:51:20 10° SW 19:55:21 50° NW 19:59:24 10° NNE
SL-24 R/B 4.2 19:51:04 10° NNE 19:55:38 87° WNW 19:59:55 10° SSW
CZ-4 R/B 1.1 19:54:30 10° SSE 19:58:07 87° ENE 20:01:46 10° NNW
Meteor 2-3 Rocket 4.2 19:53:07 10° N 19:58:30 45° ENE 20:03:52 10° SSE
CZ-4B R/B 4.0 19:57:11 10° S 20:01:09 77° WSW 20:05:12 10° NNW
ASTEX 1 3.4 19:59:17 10° S 20:04:13 83° E 20:09:12 10° N
SPOT 5 3.5 20:00:14 10° S 20:04:23 50° W 20:08:36 10° NNW
GEOS 3 Rocket 4.5 20:00:03 10° SSE 20:05:07 47° WSW 20:10:18 10° NW
CZ-4B DEB 4.2 20:00:11 10° SSE 20:05:41 83° ENE 20:11:15 10° NNW
Cosmos 2056 Rocket 3.9 20:01:59 10° SSW 20:07:21 71° WNW 20:12:45 10° NNE
CZ-4B R/B 3.4 20:02:29 10° SSE 20:08:04 63° ENE 20:13:38 10° N
Cosmos 1833 Rocket 2.7 20:02:44 10° SSW 20:08:21 87° WNW 20:14:00 10° NNE
CSL-04 Rocket 4.3 20:03:19 10° S 20:08:45 60° WSW 20:14:11 10° NNW
Cosmos 1110 Rocket 4.2 20:03:47 10° S 20:08:51 49° ESE 20:13:56 10° NNE
Cosmos 1624 Rocket 4.4 20:05:12 10° SSW 20:10:20 69° WNW 20:15:31 10° NNE
Terra 1.8 20:07:36 10° SSE 20:12:15 70° ENE 20:16:57 10° N
CBERS 1 LM4 rocket 4.4 20:07:58 10° SSE 20:12:47 74° ENE 20:17:50 10° N
Sich 1 Rocket 3.8 20:10:22 10° SSE 20:14:32 48° E 20:18:45 10° NNE
SJ 16-02 3.4 20:18:17 10° NW 20:21:43 24° W 20:25:07 10° SSW
MetOp-B 4.1 20:17:27 10° SSE 20:22:49 86° ENE 20:28:12 10° NNW
PAYLOAD B 4.3 20:18:58 10° S 20:24:27 79° WSW 20:30:00 10° NNW
USA 229 DEB 4.1 20:19:37 10° NW 20:27:17 87° NE 20:34:05 17° SE
USA 229 4.1 20:19:40 10° NW 20:27:21 86° NE 20:34:07 17° SE
Cosmos 1743 3.5 20:25:36 10° NNE 20:28:02 22° ENE 20:28:34 21° E
Cosmos 44 Rocket 3.4 20:24:06 10° SSW 20:29:00 56° ESE 20:34:03 10° NE
ISS -3.6 20:27:06 10° SW 20:30:18 48° SE 20:33:33 10° ENE
Cosmos 1459 Rocket 3.9 20:24:04 10° S 20:30:18 75° E 20:36:29 10° N
SKYMED 3 4.3 20:28:11 10° NNE 20:32:08 84° WNW 20:36:05 10° SSW
Cosmos 2100 Rocket 4.0 20:27:39 10° S 20:33:51 87° E 20:40:11 10° N
Ariane Rocket 4.4 20:32:21 17° ESE 20:34:48 24° ENE 20:38:48 10° NNE
ADEOS 3.6 20:32:33 12° S 20:37:22 80° WSW 20:42:37 10° NNW
ATLAS 2AS CENTAUR R/B 3.9 20:31:08 10° WSW 20:37:45 45° NW 20:44:16 10° NNE
Spot 2 Rocket 3.5 20:36:58 20° SSE 20:40:29 70° ENE 20:45:30 10° N
BREEZE-M DEB (TANK) 3.3 20:39:09 10° WNW 20:42:09 74° NNE 20:47:10 19° ESE
SL-4 R/B 1.8 20:39:09 10° WNW 20:42:59 83° SW 20:44:44 31° SE
MOS 1-B 4.4 20:39:56 19° SSE 20:44:05 70° ENE 20:49:53 10° N
Cosmos 2082 Rocket 2.7 20:40:45 17° SSE 20:44:30 37° ESE 20:49:42 10° NE
Okean 2 Rocket 3.6 20:40:22 10° SSW 20:44:46 60° W 20:49:13 10° N
Cosmos 1607 4.0 20:49:25 10° SSW 20:55:22 55° ESE 21:01:26 10° NE
Cosmos 2233 Rocket 4.1 20:51:19 21° SSE 20:55:27 55° E 21:01:28 10° NNE
Cosmos 2228 3.1 20:55:36 35° SE 20:56:52 48° E 21:00:50 10° NNE
SL-08 R/B 4.5 20:52:56 17° S 20:57:49 66° E 21:04:07 10° NNE
USA 186 1.1 20:58:27 75° SSW 20:58:36 81° WSW 21:01:16 10° NNW
Cosmos 292 Rocket 4.1 20:54:03 10° NNW 20:58:46 62° WSW 21:01:33 24° S
Okean O Rocket 1.6 20:57:28 27° S 20:59:47 80° WSW 21:04:06 10° NNW
DELTA 2 R/B (1) 4.0 20:56:27 10° SW 21:01:32 38° SSE 21:03:11 31° ESE
ERS-1 Rocket 4.4 21:00:01 10° SSW 21:04:29 33° W 21:09:00 10° NNW
Tsikada Rocket 4.1 20:59:48 10° N 21:05:55 59° E 21:08:51 31° SSE
CZ-4C R/B 2.1 21:02:24 10° SW 21:06:24 60° NW 21:11:29 10° NNE
Cosmos 1725 Rocket 4.0 21:00:12 10° S 21:06:30 85° W 21:12:47 10° N
Cosmos 1452 Rocket 3.6 21:01:55 10° SSW 21:07:08 79° WNW 21:12:24 10° NNE
COSMOS 2406 4.2 21:07:29 27° ESE 21:07:43 27° ESE 21:12:26 10° NE
Cosmos 1697 Rocket 3.4 21:02:53 10° NW 21:08:17 48° WSW 21:11:52 20° S
Cosmos 1741 Rocket 4.0 21:05:10 10° NNW 21:10:30 81° WSW 21:13:00 32° SSE
SL-16 R/B 3.9 21:08:08 10° N 21:12:23 21° NE 21:14:58 16° E
Okean-O 3.0 21:10:27 27° S 21:12:42 59° W 21:17:02 10° NNW
ATLAS 3B R/B 3.1 21:09:05 10° NW 21:16:45 67° WSW 21:20:47 29° SSE
CZ-4B R/B 3.4 21:19:07 44° SE 21:20:29 64° ENE 21:25:13 10° N
USA 245 4.3 21:18:49 33° SSE 21:21:36 89° ENE 21:27:31 10° NNW
Cosmos 1892 Rocket 3.8 21:17:32 10° NNW 21:21:49 62° W 21:23:28 35° SSW
Cosmos 1455 Rocket 3.8 21:19:52 16° SSW 21:23:11 52° W 21:27:30 10° N
Cosmos 1302 Rocket 3.9 21:21:11 20° SSW 21:24:50 90° WNW 21:30:02 10° NNE
Cosmos 2333 Rocket 3.8 21:20:51 10° N 21:25:21 23° NE 21:27:39 18° E
Cosmos 2016 Rocket 4.3 21:19:35 11° SSW 21:25:37 67° W 21:31:50 10° N
CZ-4B R/B 2.5 21:33:11 70° W 21:33:11 70° W 21:36:28 10° NNW
Cosmos 2061 Rocket 3.9 21:29:50 28° S 21:33:22 89° E 21:39:40 10° N
Cosmos 1782 3.5 21:32:57 31° WSW 21:34:02 42° WNW 21:37:25 10° N
Cosmos 1544 Rocket 3.6 21:35:33 54° E 21:35:33 54° E 21:39:47 10° NNE
SPOT 3 Rocket 3.6 21:34:29 42° S 21:36:16 76° WSW 21:41:26 10° NNW
Cosmos 1980 Rocket 2.4 21:30:52 10° NNW 21:36:32 65° WSW 21:38:33 39° S
NOSS 3-3 (A) 3.4 21:34:27 30° SSW 21:37:02 73° ESE 21:42:55 10° NE
BREEZE-M DEB (TANK) 3.9 21:33:07 10° SW 21:36:17 31° SW 21:36:17 31° SW
Cosmos 1933 4.2 21:44:19 35° NE 21:44:19 35° NE 21:46:55 10° NNE
Fengyun 1C 4.5 21:42:41 53° SSE 21:43:59 84° ENE 21:49:15 10° NNW
Cosmos 2084 Rocket 3.8 21:46:04 10° NNW 21:50:12 53° NE 21:50:19 53° NE
Terra 4.4 21:48:19 10° WSW 21:50:16 12° W 21:52:13 10° WNW
Helios 1B rocket 4.4 21:51:51 15° NE 21:51:51 15° NE 21:53:10 10° NNE
IRS-1C Rocket 4.2 21:51:54 48° SSW 21:53:18 68° WSW 21:58:35 10° NNW
IRS-P2 Rocket 4.5 21:52:32 58° SSE 21:53:36 88° W 21:58:52 10° NNW
Cosmos 1758 Rocket 3.4 21:49:16 10° N 21:53:39 81° E 21:53:42 81° E
CZ-2C R/B 4.1 21:55:17 27° NNW 21:55:17 27° NNW 21:56:44 10° NNW
Cosmos 1464 Rocket 4.3 21:53:23 42° ESE 21:54:06 44° E 21:59:53 10° NNE
Milstar 3 4.3 21:48:11 10° WSW 21:54:30 28° S 21:54:30 28° S
Cosmos 1513 Rocket 4.4 21:56:21 51° SSE 21:57:54 71° E 22:04:04 10° NNE
Gbstr 26 Del rocket 3.0 21:56:32 10° WNW 22:00:52 69° W 22:00:52 69° W
Cosmos 2360 Rocket 3.6 21:57:57 10° N 22:02:38 26° NE 22:04:14 23° ENE
NOSS 3-3 (C) 3.6 22:02:53 39° SW 22:04:56 86° NW 22:11:00 10° NE
ISS -1.9 22:04:12 10° W 22:07:13 30° NNW 22:08:15 25° NNE
Cosmos 1072 Rocket 4.5 22:08:18 56° SE 22:09:16 64° E 22:15:29 10° NNE
Geosat 4.0 22:06:07 10° NNE 22:11:07 76° WNW 22:12:24 50° SW
Cosmos 2237 4.2 22:06:39 10° NNW 22:12:23 75° WSW 22:13:13 63° S
Ariane Rocket 3.7 22:12:25 39° SW 22:13:24 43° W 22:18:14 10° NNW
USA 305 3.9 22:10:24 10° NW 22:13:09 36° NNW 22:13:09 36° NNW
Cosmos 1602 Rocket 3.8 22:15:00 10° N 22:18:42 65° N 22:18:42 65° N
Cosmos 2219 Rocket 3.9 22:15:42 10° N 22:20:06 23° NE 22:21:48 20° ENE
Cosmos 1437 Rocket 4.0 22:21:47 36° NNW 22:21:47 36° NNW 22:24:07 10° N
Cosmos 2369 4.2 22:22:12 10° NW 22:27:41 49° WSW 22:28:18 46° SW
Cosmos 2034 Rocket 4.2 22:27:37 54° ESE 22:28:03 55° E 22:34:14 10° NNE
Cosmos 2082 Rocket 3.6 22:23:21 10° WSW 22:28:33 35° NW 22:33:46 10° N
Cosmos 2151 3.8 22:25:34 10° NNW 22:28:56 44° WNW 22:28:56 44° WNW
Cosmos 2322 Rocket 2.9 22:25:00 10° NNW 22:30:23 43° ENE 22:31:03 41° ENE
Cosmos 1428 Rocket 4.4 22:24:29 10° N 22:30:42 66° E 22:31:20 62° ESE
Meteor 1-5 Rocket 4.1 22:34:05 10° N 22:39:47 88° E 22:40:03 82° SSE
USA 234 3.1 22:34:39 10° NE 22:41:13 77° SE 22:42:49 55° SSW
Cosmos 1763 Rocket 4.4 22:45:39 39° ENE 22:45:39 39° ENE 22:49:25 10° NNE
Okean 1-7 Rocket 4.2 22:43:36 10° N 22:47:08 55° NNW 22:47:08 55° NNW
Cosmos 1503 Rocket 4.5 22:44:13 10° N 22:49:02 50° NE 22:49:02 50° NE
Cosmos 1777 Rocket 4.2 22:44:23 10° NNW 22:49:16 64° NE 22:49:16 64° NE
Cosmos 2278 3.6 22:43:52 10° NNW 22:49:37 83° ENE 22:49:38 83° ENE
Helios 1A 4.1 22:45:58 10° N 22:48:45 39° NNW 22:48:45 39° NNW
COSMOS 2406 4.1 22:49:26 31° WSW 22:51:42 47° WNW 22:57:14 10° NNE
Cosmos 1606 Rocket 4.3 22:52:45 49° NNW 22:52:45 49° NNW 22:56:06 10° N
SL-16 R/B 2.3 22:51:21 10° NNW 22:56:47 68° W 22:56:47 68° W
Cosmos 1634 Rocket 4.3 22:57:50 51° E 22:57:50 51° E 23:03:38 10° NNE
Cosmos 1486 Rocket 4.1 22:56:06 10° NNW 23:00:50 72° NNW 23:00:50 72° NNW
Cosmos 2098 Rocket 4.3 23:02:10 42° W 23:02:19 42° WNW 23:06:51 10° N
Nadezhda 4 Rocket 4.0 22:56:21 10° NNW 23:02:23 63° W 23:02:51 61° WSW
SeaSat 1 4.5 23:03:53 17° ENE 23:05:19 19° NE 23:08:42 10° N
Meteor 2-2 Rocket 4.4 23:10:21 63° ENE 23:10:21 63° ENE 23:15:27 10° NNE
Cosmos 2333 Rocket 2.4 23:04:26 10° NNW 23:09:39 59° W 23:09:39 59° W
CZ-2C R/B 4.0 23:16:22 27° ENE 23:16:44 27° ENE 23:21:06 10° N
BREEZE-M DEB (TANK) 4.1 23:08:13 10° W 23:16:51 59° N 23:21:44 10° E
Cosmos 1833 4.3 23:17:41 68° NE 23:17:41 68° NE 23:22:38 10° NNE
Cosmos 1627 Rocket 4.4 23:11:12 10° N 23:17:37 89° W 23:17:52 84° S
Cosmos 2195 Rocket 4.5 23:14:20 10° NNW 23:20:32 68° W 23:20:43 68° WSW
Spot 4 4.4 23:23:21 55° NNW 23:23:21 55° NNW 23:27:06 10° NNW
Cosmos 2026 Rocket 4.0 23:20:44 10° NNW 23:27:05 73° W 23:27:17 72° WSW
Aureole 1 Rocket 4.2 23:26:22 10° N 23:31:46 54° ENE 23:32:03 53° ENE
Cosmos 2297 Rocket 4.4 23:33:58 13° E 23:33:58 13° E 23:35:36 10° ENE
DNEPR-1 R/B 4.4 23:28:17 10° NW 23:33:34 71° W 23:33:34 71° W
Cosmos 2333 4.4 23:34:28 10° NNW 23:39:28 65° WNW 23:39:28 65° WNW
ALOS 2 3.9 23:43:55 38° NNW 23:43:55 38° NNW 23:46:44 10° NNW
ARIANE 5 R/B 4.0 23:44:33 35° NW 23:44:33 35° NW 23:47:20 10° NNW
Cosmos 2360 Rocket 2.8 23:41:24 10° NNW 23:45:58 47° WNW 23:45:58 47° WNW
Cosmos 2058 Rocket 4.4 23:48:52 35° NNW 23:48:52 35° NNW 23:51:44 10° N
Cosmos 468 Rocket 4.4 23:51:08 61° NNE 23:51:08 61° NNE 23:55:27 10° NNE
